Temp
70 75 81 83 83 83 83 83 83 82 82 82 82 82 82 82 82 82 82 83 83 83 83 83 83 83 84 84 83 84 83 83 83 83 83 83 83 83 83 82 82 81 82
73 76 81 83 83 82 83 82 82 82 82 82 82 83 82 83 82 83 83 83 83 83 83 83 83 83 83 83 83 83 83 83 83 84 84 84 83 83 83 83 82 81 82
75 77 81 82 83 82 82 82 83 82 82 82 83 83 83 83 83 83 83 83 83 83 83 83 83 83 83 83 83 83 83 83 83 83 83 77 79 83 83 83 82 82 82
75 75 79 81 82 83 82 83 83 83 83 83 83 83 83 83 83 83 83 83 83 83 83 83 84 83 83 83 84 83 83 83 83 81 76 78 82 83 83 83 82 82 81
75 76 79 82 82 82 83 83 83 83 83 83 83 83 83 83 83 83 83 83 83 83 83 83 84 83 83 84 83 83 83 83 82 79 75 74 76 82 82 82 82 82 81
75 76 81 82 83 83 83 83 83 83 83 83 83 83 83 83 84 83 83 83 84 83 83 83 83 83 84 84 84 83 83 82 80 75 76 78 76 83 83 83 82 82 81
74 77 80 82 83 83 83 82 83 83 83 83 83 83 83 83 83 83 83 84 83 83 83 83 83 82 82 82 83 82 82 82 75 75 75 75 77 82 83 82 81 82 81
76 77 79 82 83 83 83 83 83 83 83 83 83 83 83 83 83 83 84 84 84 84 84 83 82 82 83 83 83 83 82 82 77 75 75 75 80 82 83 82 82 81 81
78 76 76 78 81 83 83 83 83 83 83 83 83 83 83 83 84 84 84 84 84 84 84 83 83 83 83 84 83 83 82 80 74 74 78 75 80 82 82 82 81 81 81
75 75 74 75 76 76 78 83 83 83 83 83 83 83 84 84 84 84 83 84 84 84 84 83 83 83 83 83 83 82 82 80 74 74 75 76 81 82 82 82 81 81 81
75 73 73 74 74 75 76 80 83 83 83 83 83 84 81 75 77 79 82 84 84 84 84 84 83 83 83 82 83 83 79 74 73 74 74 79 81 83 82 81 81 81 81
71 72 72 73 73 74 81 76 75 78 75 75 75 74 73 74 74 78 81 84 84 84 83 83 83 83 79 74 77 79 73 74 73 73 74 80 81 82 82 81 81 80 80
72 74 72 72 73 74 75 73 73 73 73 74 74 73 73 74 73 74 74 75 73 77 74 74 74 72 72 72 73 73 74 74 72 74 77 80 81 82 81 81 81 80 80
72 74 72 72 73 72 73 72 73 72 72 72 73 73 72 72 72 72 71 71 72 71 72 71 70 72 72 74 73 72 74 72 72 73 75 80 81 81 81 81 81 80 80
72 74 73 73 72 72 72 72 72 72 72 73 73 73 72 71 72 72 71 70 71 71 70 70 71 72 73 74 74 74 74 73 73 72 73 80 80 81 81 81 81 80 80
75 74 74 73 72 72 72 72 71 72 73 73 73 72 73 72 72 72 71 71 71 71 72 71 72 71 71 74 74 74 74 74 73 73 73 75 80 80 81 81 81 81 81
76 76 74 74 72 72 72 72 71 72 73 73 74 73 73 74 72 71 71 71 71 71 72 72 72 71 72 74 73 74 74 74 74 74 73 73 75 80 81 81 81 81 81
77 75 75 80 74 72 73 73 72 73 74 74 73 72 73 75 74 71 71 71 71 72 71 71 70 70 71 72 72 72 72 74 74 74 73 73 73 75 78 81 81 80 80
78 75 74 75 74 73 73 72 72 74 73 74 74 72 72 76 75 72 71 71 72 71 70 72 70 71 70 71 72 72 72 72 73 76 73 73 72 73 72 77 79 79 81
78 76 77 76 75 73 72 70 71 72 72 73 74 73 74 73 73 72 72 72 71 70 70 70 71 71 71 70 78 75 71 72 72 72 73 75 73 73 73 72 72 74 79
79 76 76 75 73 73 70 69 70 70 71 72 73 75 74 74 74 72 72 72 71 71 71 72 71 73 72 71 70 70 71 72 72 72 72 72 73 74 73 72 71 72 72
77 76 75 76 74 74 72 71 72 72 71 72 73 74 75 74 73 73 72 72 71 71 71 72 72 70 70 69 69 67 68 69 70 72 71 73 72 73 74 74 73 72 71
76 75 75 76 74 74 73 72 70 72 71 71 72 73 75 75 75 74 73 72 72 71 71 71 72 72 69 69 69 68 62 63 64 69 70 70 71 70 72 73 74 73 72
77 77 76 76 75 74 73 72 71 71 69 71 72 73 74 75 75 74 75 74 72 71 71 72 74 73 69 69 69 72 68 68 65 65 68 70 70 71 70 70 73 73 73
78 77 77 75 75 76 74 75 72 70 72 72 72 72 72 73 75 76 74 74 72 72 72 72 73 71 70 70 68 68 68 68 67 65 65 68 69 70 71 71 72 72 73
79 78 77 74 74 75 74 72 72 71 71 70 70 71 71 72 73 75 75 74 73 72 72 72 72 72 71 70 69 68 69 71 68 66 64 64 65 70 71 71 71 71 72
MSLP
1015.74 1015.57 1015.48 1015.52 1015.57 1015.66 1015.80 1016.01 1016.15 1016.19 1016.17 1016.23 1016.27 1016.38 1016.47 1016.54 1016.60 1016.67 1016.72 1016.77 1016.90 1016.98 1016.98 1016.91 1016.88 1016.94 1016.91 1016.93 1016.93 1017.01 1017.21 1017.33 1017.34 1017.33 1017.39 1017.49 1017.60 1017.70 1017.80 1017.84 1018.00 1018.03 1018.07
1015.23 1015.54 1015.54 1015.61 1015.75 1015.85 1016.01 1016.18 1016.38 1016.48 1016.41 1016.47 1016.59 1016.62 1016.65 1016.67 1016.77 1016.84 1016.85 1016.94 1016.97 1017.02 1017.09 1017.14 1017.20 1017.22 1017.15 1017.15 1017.24 1017.40 1017.49 1017.58 1017.54 1017.53 1017.67 1017.79 1017.91 1018.03 1018.09 1018.29 1018.42 1018.47 1018.53
1015.43 1015.54 1015.66 1015.76 1015.83 1015.99 1016.15 1016.36 1016.48 1016.53 1016.57 1016.70 1016.72 1016.81 1016.83 1016.88 1016.86 1016.95 1016.99 1017.09 1017.22 1017.26 1017.26 1017.30 1017.34 1017.30 1017.35 1017.51 1017.64 1017.71 1017.76 1017.78 1017.83 1017.97 1018.05 1018.20 1018.30 1018.36 1018.42 1018.52 1018.70 1018.92 1019.06
1015.33 1015.62 1015.75 1015.83 1015.95 1016.05 1016.33 1016.54 1016.63 1016.66 1016.74 1016.90 1016.98 1017.06 1017.13 1017.18 1017.19 1017.28 1017.34 1017.41 1017.46 1017.51 1017.51 1017.55 1017.54 1017.61 1017.79 1017.88 1017.87 1017.91 1017.96 1018.07 1018.16 1018.39 1018.60 1018.57 1018.61 1018.77 1018.85 1018.92 1019.03 1019.28 1019.44
1015.36 1015.68 1015.92 1016.00 1016.22 1016.42 1016.51 1016.65 1016.85 1016.86 1017.04 1017.12 1017.23 1017.27 1017.32 1017.46 1017.53 1017.62 1017.62 1017.70 1017.80 1017.77 1017.74 1017.86 1017.92 1017.92 1017.98 1018.01 1018.07 1018.11 1018.18 1018.37 1018.65 1018.88 1018.99 1019.14 1019.12 1019.21 1019.18 1019.29 1019.45 1019.63 1019.78
1015.54 1015.80 1015.92 1016.14 1016.38 1016.65 1016.74 1016.90 1017.00 1017.14 1017.20 1017.36 1017.45 1017.52 1017.52 1017.67 1017.78 1017.88 1017.93 1018.03 1018.03 1018.17 1018.23 1018.24 1018.19 1018.17 1018.19 1018.27 1018.31 1018.36 1018.46 1018.73 1019.04 1019.24 1019.32 1019.34 1019.43 1019.44 1019.54 1019.64 1019.81 1019.98 1020.10
1015.79 1015.91 1016.09 1016.34 1016.60 1016.86 1017.01 1017.02 1017.16 1017.28 1017.43 1017.58 1017.69 1017.82 1017.86 1017.85 1017.96 1018.11 1018.09 1018.23 1018.31 1018.31 1018.47 1018.59 1018.54 1018.71 1018.74 1018.66 1018.59 1018.73 1018.93 1019.19 1019.43 1019.54 1019.61 1019.71 1019.68 1019.79 1019.79 1019.96 1020.13 1020.33 1020.36
1015.89 1016.04 1016.23 1016.47 1016.70 1017.03 1017.18 1017.29 1017.38 1017.47 1017.71 1017.89 1018.06 1018.20 1018.17 1018.18 1018.23 1018.34 1018.42 1018.47 1018.49 1018.59 1018.78 1018.95 1019.04 1019.07 1018.92 1018.81 1018.91 1019.11 1019.33 1019.50 1019.76 1019.84 1019.94 1020.01 1019.95 1020.00 1020.12 1020.30 1020.46 1020.54 1020.65
1015.97 1016.24 1016.51 1016.69 1016.85 1017.06 1017.24 1017.40 1017.54 1017.57 1017.89 1018.12 1018.33 1018.43 1018.48 1018.47 1018.50 1018.52 1018.56 1018.59 1018.65 1018.83 1019.03 1019.22 1019.26 1019.15 1019.07 1019.04 1019.18 1019.39 1019.61 1019.85 1020.09 1020.18 1020.19 1020.36 1020.37 1020.32 1020.51 1020.67 1020.73 1020.80 1020.93
1016.37 1016.54 1016.83 1017.05 1017.22 1017.36 1017.60 1017.59 1017.77 1017.91 1018.10 1018.25 1018.42 1018.60 1018.66 1018.73 1018.73 1018.83 1018.93 1018.89 1018.91 1019.05 1019.28 1019.51 1019.48 1019.39 1019.38 1019.47 1019.50 1019.68 1019.88 1020.11 1020.34 1020.48 1020.55 1020.64 1020.64 1020.71 1020.83 1020.95 1021.10 1021.17 1021.12
1016.89 1017.11 1017.14 1017.33 1017.64 1017.64 1017.79 1017.83 1017.99 1018.24 1018.32 1018.42 1018.67 1018.88 1019.02 1019.18 1019.21 1019.23 1019.21 1019.15 1019.19 1019.31 1019.45 1019.59 1019.63 1019.65 1019.64 1019.83 1019.83 1019.91 1020.19 1020.49 1020.63 1020.76 1020.85 1020.79 1020.81 1020.87 1021.04 1021.20 1021.30 1021.33 1021.30
1016.98 1017.30 1017.42 1017.55 1017.76 1017.80 1017.87 1018.12 1018.34 1018.53 1018.73 1018.84 1019.07 1019.42 1019.51 1019.57 1019.63 1019.60 1019.45 1019.44 1019.54 1019.63 1019.76 1019.85 1019.91 1019.93 1020.07 1020.20 1020.21 1020.28 1020.52 1020.74 1020.93 1020.99 1021.03 1020.98 1021.03 1021.19 1021.32 1021.37 1021.42 1021.49 1021.47
1016.81 1017.23 1017.60 1017.60 1017.72 1017.98 1018.11 1018.43 1018.68 1018.88 1019.03 1019.20 1019.31 1019.61 1019.77 1019.81 1019.89 1019.92 1019.83 1019.90 1020.12 1020.10 1020.33 1020.51 1020.48 1020.55 1020.50 1020.51 1020.49 1020.51 1020.67 1020.92 1021.13 1021.15 1021.16 1021.15 1021.21 1021.36 1021.51 1021.65 1021.66 1021.68 1021.72
1016.95 1017.12 1017.51 1017.59 1017.74 1018.13 1018.32 1018.70 1018.84 1019.14 1019.27 1019.36 1019.54 1019.71 1019.93 1020.00 1020.07 1020.13 1020.10 1020.19 1020.23 1020.48 1020.48 1020.67 1020.78 1020.63 1020.58 1020.48 1020.54 1020.65 1020.74 1021.10 1021.33 1021.38 1021.41 1021.38 1021.42 1021.43 1021.59 1021.72 1021.76 1021.79 1021.80
1016.79 1017.01 1017.36 1017.48 1017.83 1018.17 1018.51 1018.76 1018.99 1019.28 1019.42 1019.45 1019.62 1019.77 1019.82 1019.96 1020.16 1020.30 1020.28 1020.42 1020.44 1020.42 1020.60 1020.88 1020.91 1020.86 1020.68 1020.53 1020.58 1020.73 1020.90 1021.12 1021.32 1021.53 1021.65 1021.54 1021.56 1021.61 1021.65 1021.74 1021.78 1021.83 1021.92
1016.50 1016.83 1017.20 1017.60 1017.80 1018.13 1018.61 1018.86 1019.04 1019.25 1019.42 1019.61 1019.67 1019.71 1019.87 1019.91 1020.11 1020.28 1020.48 1020.57 1020.53 1020.41 1020.50 1020.79 1020.72 1020.95 1021.01 1020.74 1020.83 1020.97 1021.12 1021.30 1021.53 1021.75 1021.79 1021.66 1021.65 1021.76 1021.74 1021.80 1021.84 1021.93 1022.03
1015.93 1016.50 1017.03 1017.44 1017.70 1018.01 1018.42 1018.81 1019.15 1019.25 1019.43 1019.52 1019.57 1019.76 1019.89 1019.77 1019.97 1020.35 1020.50 1020.73 1020.53 1020.31 1020.41 1020.81 1020.85 1021.06 1021.21 1021.02 1021.07 1021.24 1021.34 1021.43 1021.62 1021.80 1021.85 1021.80 1021.81 1021.88 1021.91 1021.91 1021.95 1022.00 1022.03
1015.74 1016.36 1016.99 1017.31 1017.76 1017.99 1018.15 1018.65 1018.95 1019.15 1019.36 1019.43 1019.56 1019.83 1019.92 1019.65 1019.80 1020.21 1020.44 1020.63 1020.64 1020.48 1020.62 1020.84 1021.21 1021.42 1021.40 1021.39 1021.43 1021.51 1021.62 1021.60 1021.72 1021.89 1022.02 1022.01 1022.00 1022.01 1021.98 1021.92 1022.01 1021.98 1022.04
1015.21 1015.96 1016.76 1017.15 1017.55 1017.95 1018.07 1018.38 1018.69 1018.91 1019.15 1019.32 1019.58 1019.70 1020.01 1019.62 1019.75 1020.02 1020.39 1020.73 1020.68 1020.84 1020.90 1020.85 1021.04 1021.34 1021.59 1021.60 1021.73 1021.72 1021.78 1021.86 1021.95 1021.89 1022.00 1022.01 1022.04 1022.09 1022.14 1022.03 1022.01 1021.97 1021.94
1015.09 1015.62 1016.12 1016.77 1017.37 1017.84 1018.09 1018.45 1018.67 1018.94 1019.04 1019.15 1019.43 1019.56 1019.71 1019.84 1020.14 1020.19 1020.53 1020.77 1020.92 1021.20 1021.33 1021.36 1021.31 1021.42 1021.51 1021.79 1021.80 1021.97 1022.04 1021.95 1021.92 1022.00 1022.06 1021.97 1022.02 1022.05 1022.07 1022.10 1022.09 1022.01 1021.89
1014.69 1015.57 1016.17 1016.66 1017.17 1017.72 1018.18 1018.60 1018.81 1019.04 1019.12 1019.30 1019.35 1019.39 1019.66 1019.92 1020.04 1020.23 1020.39 1020.54 1020.78 1021.18 1021.31 1021.39 1021.41 1021.60 1021.66 1021.90 1022.19 1022.32 1022.08 1022.01 1021.95 1021.87 1021.81 1021.98 1021.91 1021.86 1021.95 1021.91 1021.92 1021.94 1021.89
1014.24 1015.01 1015.89 1016.31 1016.91 1017.26 1017.57 1017.89 1018.12 1018.71 1019.12 1019.20 1019.19 1019.39 1019.65 1019.87 1019.98 1020.12 1020.16 1020.33 1020.76 1021.10 1021.20 1021.23 1021.44 1021.87 1021.96 1022.01 1022.39 1022.71 1022.74 1022.34 1021.96 1021.80 1021.79 1021.79 1021.70 1021.73 1021.69 1021.66 1021.69 1021.72 1021.75
1014.21 1014.70 1015.30 1015.85 1016.33 1016.89 1017.18 1017.69 1018.20 1018.71 1019.25 1019.67 1019.60 1019.53 1019.53 1019.78 1019.85 1019.96 1020.24 1020.47 1020.81 1020.88 1021.20 1021.32 1021.35 1021.63 1022.04 1022.19 1022.27 1022.54 1023.18 1022.94 1022.57 1021.96 1021.71 1021.58 1021.68 1021.73 1021.55 1021.48 1021.39 1021.44 1021.51
1013.48 1014.26 1014.67 1015.42 1015.94 1016.46 1016.92 1017.44 1017.92 1018.36 1019.14 1019.28 1019.32 1019.43 1019.39 1019.68 1019.82 1020.09 1020.13 1020.34 1020.73 1020.94 1021.17 1021.25 1021.21 1021.52 1021.88 1022.22 1022.41 1022.42 1022.31 1022.40 1022.62 1022.69 1021.94 1021.62 1021.58 1021.57 1021.50 1021.35 1021.23 1021.15 1021.17
1012.96 1013.91 1014.51 1015.21 1015.66 1016.15 1016.54 1016.98 1017.64 1018.23 1018.62 1018.86 1019.18 1019.42 1019.65 1019.60 1019.79 1019.98 1020.16 1020.15 1020.52 1020.84 1021.07 1021.27 1021.31 1021.55 1021.82 1022.12 1022.45 1022.48 1022.37 1022.43 1022.53 1022.73 1022.65 1022.14 1021.78 1021.38 1021.12 1021.05 1021.03 1021.03 1020.88
1012.31 1013.26 1014.10 1014.84 1015.17 1015.67 1016.14 1016.64 1017.16 1017.87 1018.39 1018.94 1019.29 1019.53 1019.73 1019.73 1019.78 1019.94 1020.18 1020.17 1020.31 1020.71 1021.08 1021.24 1021.23 1021.57 1021.77 1022.02 1022.25 1022.28 1022.41 1022.50 1022.62 1022.64 1022.80 1022.55 1022.38 1021.53 1020.99 1020.70 1020.76 1020.68 1020.56
Wind_Speed
5 5 11 12 13 14 15 15 14 14 14 15 14 14 13 13 13 12 12 12 11 10 11 12 13 12 13 14 15 15 15 15 15 16 16 16 16 15 15 16 15 10 16
9 6 12 12 13 15 15 14 14 14 13 13 13 12 12 12 12 12 11 12 11 11 11 11 11 12 13 13 14 14 14 14 14 17 16 16 16 15 15 15 14 14 14
11 6 9 12 13 14 15 14 13 13 13 12 12 12 12 11 11 11 10 12 11 10 12 11 11 11 12 12 13 14 14 15 16 15 15 5 6 15 15 16 14 16 15
10 6 7 13 12 14 14 13 12 12 12 11 11 11 11 10 10 10 10 11 10 11 10 12 11 11 11 11 11 12 14 15 15 12 5 5 9 15 14 15 14 15 14
9 7 9 14 13 14 14 13 11 12 11 11 11 11 11 10 10 10 11 10 10 9 11 10 10 11 12 10 10 9 11 14 14 10 6 6 5 11 14 14 13 12 15
9 7 13 15 15 13 13 12 12 12 11 10 10 10 11 9 10 11 10 9 10 9 9 9 10 11 10 9 11 10 17 16 13 5 5 6 5 12 14 12 14 13 12
9 7 10 14 14 14 13 12 12 11 11 9 10 9 9 10 9 10 9 9 8 8 9 9 10 10 9 8 11 13 16 14 6 5 5 5 5 13 13 13 13 12 12
11 8 8 14 14 13 13 12 12 11 11 9 8 9 10 9 9 10 9 9 9 10 9 9 11 10 10 11 13 13 13 13 7 5 5 4 8 11 14 13 12 11 11
10 7 5 6 10 14 13 13 12 12 11 9 10 9 9 9 9 9 9 9 10 11 11 11 11 10 10 12 11 12 12 12 5 4 5 3 8 13 13 12 10 10 9
7 6 5 5 5 6 6 13 12 12 11 10 9 10 9 8 7 8 5 7 10 12 12 11 10 10 11 12 9 11 13 12 5 4 4 3 9 11 11 11 10 10 9
6 5 5 6 5 5 5 7 10 12 11 11 9 10 5 2 3 5 3 7 10 11 11 11 10 10 10 10 11 12 10 3 4 3 2 7 7 10 10 10 8 8 8
9 6 5 6 5 5 5 3 4 4 3 3 4 5 2 2 0 2 4 6 8 10 11 10 9 7 6 3 3 8 3 4 3 3 1 6 8 8 9 8 8 6 6
12 8 6 6 6 5 4 3 2 2 2 2 4 5 2 1 2 1 1 2 3 6 3 4 3 2 4 2 2 3 4 4 2 2 2 6 6 9 7 6 6 5 4
12 9 8 7 7 4 4 3 3 3 2 2 3 5 2 2 2 1 1 1 2 2 2 3 2 1 3 3 3 4 5 4 2 1 2 5 5 7 7 6 5 4 3
12 10 9 7 6 5 5 3 3 3 3 2 2 4 4 4 4 2 2 1 1 1 3 3 3 1 1 3 3 5 5 5 4 2 1 7 4 6 6 6 5 5 4
11 10 9 7 6 6 5 4 4 3 3 3 3 3 4 4 4 3 3 1 3 3 2 2 2 2 3 3 3 4 4 4 3 3 2 3 7 6 6 6 6 5 4
13 12 11 9 7 7 7 6 4 4 3 4 4 4 4 5 5 4 3 2 3 3 3 2 1 2 2 2 3 4 3 4 4 4 4 3 3 8 7 6 6 6 5
12 12 10 9 8 7 7 5 4 4 4 4 3 3 5 5 5 4 3 2 2 1 1 1 3 1 2 1 1 2 2 3 3 4 3 3 2 2 6 9 7 7 7
15 13 11 9 10 7 6 5 5 5 4 4 3 3 5 4 5 4 3 2 3 2 1 1 1 2 1 0 1 2 3 3 3 3 5 5 5 4 3 6 7 7 9
14 13 14 11 12 7 5 4 2 2 2 3 4 4 5 3 4 4 3 5 4 3 1 0 1 1 2 2 1 1 1 3 3 4 4 4 4 5 4 4 4 4 9
15 13 13 12 9 7 4 4 3 3 2 2 3 5 4 4 5 4 4 4 3 3 3 3 2 2 2 2 2 2 2 3 5 4 4 4 5 5 5 4 3 3 4
18 16 14 14 10 8 5 3 4 4 1 0 2 4 4 4 5 4 3 3 4 3 2 2 2 1 1 1 3 2 2 4 3 3 3 4 6 3 5 5 5 5 4
16 16 16 16 14 9 8 4 4 5 3 2 1 2 4 5 5 4 4 3 3 3 2 2 1 2 3 1 1 4 1 3 2 2 3 4 4 4 4 5 5 5 5
18 14 16 15 14 9 9 7 5 5 4 3 3 3 4 5 5 4 5 5 4 3 3 2 2 2 2 1 2 0 1 3 2 3 2 2 3 4 5 4 5 5 5
18 16 13 13 14 11 11 10 6 5 4 3 2 4 3 4 5 5 5 6 5 3 3 4 3 2 1 2 2 1 1 2 2 2 2 4 3 3 4 5 5 5 6
17 17 15 14 14 12 11 9 10 9 6 4 2 3 3 3 3 5 5 5 5 4 5 4 3 4 3 2 2 2 2 1 1 1 1 2 2 4 3 4 4 5 5
Wind_Direction
181 185 158 144 136 132 126 123 122 117 113 111 115 116 112 108 103 102 104 101 99 104 98 97 99 100 102 102 100 103 104 106 102 100 101 96 96 93 92 88 92 99 99
141 169 156 148 135 140 130 129 125 122 117 113 113 111 107 104 104 103 103 100 105 110 111 110 108 109 102 105 106 110 105 102 99 104 104 101 98 102 100 97 94 87 81
144 162 153 142 139 139 134 132 125 120 116 116 116 109 103 103 104 101 104 109 105 107 124 119 111 105 109 104 110 110 108 102 99 102 100 94 103 98 101 99 98 93 90
144 145 145 144 142 137 137 130 127 126 122 118 111 108 109 106 105 105 102 103 108 105 103 113 112 111 110 110 115 115 109 107 105 90 60 63 96 94 94 98 94 101 99
139 134 149 148 141 141 140 139 136 132 127 129 122 117 117 108 104 109 103 102 104 100 104 99 105 114 114 117 110 121 137 107 102 88 78 71 78 103 95 97 95 98 97
137 139 149 148 146 146 138 141 139 137 135 129 124 122 115 122 117 116 115 118 112 108 101 106 111 113 109 108 113 110 118 114 104 77 78 96 96 104 102 108 98 93 92
140 146 146 147 147 149 155 144 143 137 135 138 127 127 121 124 126 121 119 110 108 103 111 111 112 103 91 93 127 107 105 110 95 89 86 87 98 106 105 100 99 93 91
143 139 150 155 154 151 146 149 142 140 135 126 132 129 129 128 137 123 123 113 104 103 106 111 100 96 87 88 103 108 110 107 91 89 88 90 105 108 100 103 97 98 94
139 131 134 146 149 146 147 151 145 140 132 144 132 133 128 138 132 129 117 116 112 105 104 105 106 100 96 97 110 107 109 116 94 94 92 68 102 105 101 100 103 95 100
134 126 131 123 116 125 150 148 149 137 142 134 130 137 139 135 139 126 113 118 116 113 103 103 108 105 99 90 98 124 122 115 92 82 85 97 104 106 110 109 100 99 92
125 128 132 121 121 132 142 157 149 146 143 144 139 136 114 89 108 106 148 117 114 119 114 113 116 110 106 103 97 120 109 95 100 98 80 134 112 117 113 104 100 110 102
153 152 141 133 150 151 140 125 127 148 126 125 117 101 76 89 143 136 144 119 112 117 116 116 132 125 97 73 104 103 117 114 107 117 124 123 122 113 114 116 115 113 116
161 162 155 157 160 159 133 146 122 133 138 143 139 128 112 50 331 10 2 76 72 88 73 78 67 58 92 96 125 147 133 116 125 120 147 127 127 129 126 124 129 118 106
170 169 163 172 164 173 134 143 168 142 164 171 159 169 165 180 224 239 287 39 125 111 107 103 108 129 107 130 172 152 123 127 142 135 180 152 149 140 144 152 147 147 154
170 170 175 166 170 171 142 154 165 154 186 208 191 200 185 180 178 194 210 154 284 185 141 129 117 134 55 48 133 133 138 147 161 152 175 168 174 167 173 176 184 185 187
174 175 168 168 173 161 146 168 185 177 194 203 210 227 201 177 178 189 188 215 276 245 218 143 162 54 348 2 135 154 143 136 137 150 193 201 193 196 192 200 202 205 204
181 169 172 166 164 170 163 172 183 199 188 210 203 206 242 200 174 170 160 190 236 275 298 61 25 27 346 15 128 164 145 162 165 185 209 222 215 210 211 217 222 227 247
168 171 168 177 170 173 174 174 191 205 188 216 201 173 241 186 165 156 168 181 217 271 182 169 152 215 1 339 145 178 175 177 182 200 213 232 235 231 238 231 232 237 244
175 164 165 169 177 170 177 172 189 211 201 197 177 180 227 182 132 154 170 151 187 123 156 161 360 138 169 224 236 202 172 199 193 208 223 223 234 232 242 261 253 246 254
173 174 169 169 175 168 148 132 137 156 211 166 183 191 212 144 169 155 147 140 150 137 164 269 132 141 165 150 145 129 194 226 220 215 222 225 233 237 238 246 267 265 263
170 168 178 171 178 155 146 151 140 168 162 154 178 211 177 171 183 177 149 140 135 144 181 168 113 90 5 105 75 346 300 252 227 228 221 217 232 233 239 239 241 253 268
173 173 174 184 178 173 162 166 136 132 175 116 180 198 173 177 195 180 182 147 135 131 127 82 122 116 64 157 137 60 348 328 317 252 246 240 236 230 237 234 232 242 250
180 177 177 184 184 177 160 128 90 89 68 104 146 219 200 186 209 197 189 156 161 142 160 166 130 124 139 265 186 129 64 243 320 323 286 240 243 233 250 243 234 232 237
184 188 177 183 182 181 163 156 153 153 152 191 183 193 197 185 197 209 188 179 178 158 180 181 163 121 121 183 48 62 227 153 159 338 321 292 266 251 245 248 249 248 241
176 182 184 185 183 184 175 174 155 153 160 158 165 178 213 203 192 210 221 180 175 173 189 206 167 170 162 135 153 207 3 21 75 120 284 314 325 263 247 233 232 247 243
182 181 180 182 188 182 177 173 166 165 165 160 181 180 204 230 213 222 213 194 182 187 180 196 193 179 148 117 156 190 158 192 215 127 42 280 248 295 271 251 239 249 251